[[{"header":{"parameterUnit":"m.s-1","parameterCategory":1,"la1":30.2991,"la2":30.254,"lo1":-89.0895,"lo2":-89.0444,"dy":0.0017,"dx":0.0017,"nx":28,"ny":28,"refTime":"2023-11-12T03:00:00:Z","depth":0,"parameterNumber":2,"parameterNumberName":"U-component_of_WINDS"},"data":[0,0,0,0,0,0,0,0,0,0,0,0,0,0,0,0,0,0,0,0,0,0,0,0,0,0,0,0,0,0,0,0,0,0,0,0,0,0,0,0,0,0,0,0,0,0,0,0,0,0,0,0,0,0,0,0,0,0,-4.1899,-4.1899,0,-4.1871,-4.1871,-4.1871,-4.1725,-4.1722,-4.1718,-4.1715,-4.1689,-4.1691,-4.1694,0,0,0,0,0,0,0,0,0,0,0,0,0,-4.1828,-4.183,-4.1899,-4.1899,-4.1898,-4.1871,-4.1871,-4.1871,-4.1726,-4.1721,-4.1717,-4.1713,-4.1688,-4.1691,-4.1694,0,0,0,0,0,0,0,0,0,0,0,0,0,-4.1836,-4.1831,-4.1899,-4.1823,-4.1816,-4.1872,-4.1871,-4.1871,-4.1727,-4.1721,-4.1716,-4.1711,-4.1687,-4.169,-4.1694,-4.1822,0,0,-4.1706,-4.1708,0,0,0,0,0,0,0,0,-4.1836,-4.1839,-4.1834,-4.1828,-4.182,-4.1796,-4.1836,-4.1855,-4.1728,-4.176,-4.1715,-4.1709,-4.1729,-4.1729,-4.1735,-4.1821,-4.182,-4.1706,-4.1709,-4.171,-4.1711,0,0,0,0,0,0,0,-4.1835,-4.1839,-4.1888,-4.1834,-4.1826,-4.179,-4.1786,-4.1839,-4.1774,-4.1757,-4.1747,-4.1745,-4.1724,-4.1732,-4.1733,-4.182,-4.1706,-4.171,-4.1712,-4.1713,-4.201,-4.2015,0,0,0,0,0,0,-4.1845,-4.1839,-4.1889,-4.1887,-4.1815,-4.1796,-4.1791,-4.1809,-4.1773,-4.1763,-4.175,-4.1738,-4.1728,-4.1729,-4.1732,-4.188,-4.171,-4.1714,-4.1716,-4.2004,-4.2011,-4.2017,0,0,0,0,0,0,-4.1844,-4.1851,-4.189,-4.186,-4.1863,-4.1803,-4.1825,-4.1812,-4.1819,-4.1768,-4.1755,-4.177,-4.1724,-4.1727,-4.1801,-4.1877,-4.1715,-4.1719,-4.1998,-4.2006,-4.2014,-4.2177,0,0,0,0,0,0,-4.1843,-4.1851,-4.1899,-4.1863,-4.1865,-4.196,-4.1829,-4.1815,-4.1826,-4.1811,-4.1783,-4.1773,-4.172,-4.1796,-4.1805,-4.1879,-4.1722,-4.199,-4.2001,-4.2011,-4.2165,-4.219,-4.2212,0,0,0,0,0,-4.1841,-4.1946,-4.1902,-4.1909,-4.1923,-4.1964,-4.1965,-4.1901,-4.1833,-4.188,-4.1847,-4.1774,-4.1867,-4.1805,-4.1813,-4.189,-4.1985,-4.1998,-4.201,-4.2154,-4.2185,-4.2211,0,0,0,0,0,0,-4.1994,-4.194,-4.1891,-4.1988,-4.1982,-4.1939,-4.1997,-4.1936,-4.195,-4.1935,-4.1855,-4.185,-4.1937,-4.1921,-4.1852,-4.2013,-4.1914,-4.1929,-4.202,-4.2049,-4.2072,-4.2075,-4.1725,0,0,0,0,0,-4.2039,-4.2076,-4.2027,-4.2118,-4.2117,-4.2059,-4.2074,-4.2025,-4.2016,-4.2012,-4.1984,-4.1979,-4.2007,-4.2027,-4.2049,-4.2161,-4.2154,-4.2218,-4.2242,-4.2262,-4.2276,-4.2334,-4.2363,-4.2058,-4.2058,-4.2058,0,0,-4.2133,-4.2108,-4.2136,-4.2148,-4.2137,-4.2178,-4.2057,-4.2105,-4.2135,-4.202,-4.2088,-4.2068,-4.2056,-4.215,-4.219,-4.214,-4.2358,-4.2278,-4.2294,-4.2297,-4.235,-4.2379,-4.2405,-4.2067,-4.2065,-4.2064,0,0,-4.2324,-4.2309,-4.2383,-4.2375,-4.236,-4.232,-4.2338,-4.2305,-4.2287,-4.2355,-4.2269,-4.2304,-4.2353,-4.2348,-4.2353,-4.2543,-4.2477,-4.2553,-4.2676,-4.2734,-4.2758,-4.2779,-4.2848,-4.2874,-4.2567,-4.2567,-4.2568,0,-4.2443,-4.25,-4.2429,-4.2483,-4.2491,-4.2387,-4.2462,-4.2458,-4.2452,-4.246,-4.2403,-4.2463,-4.2448,-4.254,-4.2587,-4.2593,-4.2612,-4.2556,-4.276,-4.2781,-4.2799,-4.2864,-4.289,-4.2577,-4.2576,-4.2575,-4.2574,0,-4.2647,-4.2689,-4.275,-4.2746,-4.2761,-4.2826,-4.2764,-4.2788,-4.2738,-4.2705,-4.2775,-4.2753,-4.277,-4.2788,-4.274,-4.2873,-4.2842,-4.2774,-4.2674,-4.2839,-4.2898,-4.2923,-4.259,-4.2587,-4.2584,-4.2582,0,0,-4.2935,-4.2891,-4.2915,-4.2912,-4.2888,-4.2919,-4.2979,-4.2995,-4.3017,-4.3017,-4.3066,-4.311,-4.3047,-4.3052,-4.3002,-4.3053,-4.3207,-4.2979,-4.2977,-4.3023,-4.3354,-4.3406,-4.3436,-4.3162,-4.3167,-4.317,-4.3355,0,-4.3119,-4.3218,-4.3155,-4.3264,-4.3302,-4.3205,-4.3257,-4.3249,-4.3219,-4.3248,-4.3215,-4.3248,-4.3162,-4.3164,-4.321,-4.3178,-4.3272,-4.3164,-4.3208,-4.3211,-4.3215,-4.3466,-4.3521,-4.3697,-4.3378,-4.3382,-4.3384,0,-4.3347,-4.3356,-4.3469,-4.3438,-4.3451,-4.35,-4.3509,-4.3537,-4.3526,-4.3501,-4.3507,-4.3445,-4.3502,-4.3403,-4.3481,-4.3409,-4.3423,-4.3411,-4.3416,-4.3418,-4.3308,-4.3476,-4.3751,-4.3778,-4.342,-4.3417,-4.3415,0,-4.3546,-4.3587,-4.366,-4.366,-4.3626,-4.3662,-4.365,-4.3633,-4.3647,-4.3656,-4.3664,-4.368,-4.3689,-4.3703,-4.3647,-4.3579,-4.3733,-4.3629,-4.3715,-4.3717,-4.3752,-4.3751,-4.4034,-4.3761,-4.3761,-4.376,-4.3759,0,-4.3759,-4.3832,-4.3749,-4.3794,-4.3873,-4.3801,-4.3882,-4.3859,-4.3845,-4.3885,-4.3801,-4.3841,-4.3763,-4.3795,-4.3752,-4.3824,-4.3828,-4.3811,-4.3798,-4.3819,-4.3821,-4.3827,-4.3814,-4.3767,-4.3765,-4.3764,-4.3763,0,-4.3996,-4.3943,-4.4016,-4.3977,-4.3969,-4.403,-4.3997,-4.4038,-4.4002,-4.4053,-4.4061,-4.4007,-4.4039,-4.3984,-4.4011,-4.3982,-4.4083,-4.4051,-4.4086,-4.4077,-4.4167,-4.416,-4.4465,-4.4501,-4.4204,-4.4207,-4.421,0,-4.4135,-4.4189,-4.4156,-4.4176,-4.4168,-4.4202,-4.4215,-4.4146,-4.4164,-4.4156,-4.4198,-4.4223,-4.424,-4.4297,-4.4261,-4.4281,-4.4249,-4.4355,-4.4252,-4.4271,-4.4252,-4.425,-4.4255,-4.4376,-4.438,-4.4383,-4.4385,0,-4.4388,-4.436,-4.4382,-4.4395,-4.4413,-4.4421,-4.4422,-4.4444,-4.4371,-4.4395,-4.4427,-4.444,-4.4467,-4.4494,-4.4505,-4.4493,-4.4428,-4.4418,-4.4439,-4.4461,-4.4479,-4.4471,-4.4145,-4.4411,-4.4409,-4.4407,-4.4405,-4.4404,-4.4581,-4.4625,-4.4609,-4.4636,-4.463,-4.4633,-4.467,-4.4639,-4.4664,-4.468,-4.4638,-4.468,-4.4668,-4.4676,-4.4671,-4.4704,-4.4657,-4.4688,-4.4696,-4.4705,-4.4719,-4.4474,-4.4706,-4.4705,-4.4704,-4.4703,-4.4703,0,-4.4831,-4.4815,-4.4842,-4.4846,-4.4868,-4.4804,-4.4802,-4.4825,-4.4864,-4.4857,-4.4876,-4.4913,-4.4939,-4.4904,-4.4924,-4.4957,-4.4928,-4.4965,-4.4962,-4.4961,-4.4759,-4.4739,-4.4988,-4.4988,-4.4988,-4.4988,-4.4988,-4.4988,-4.4963,-4.5034,-4.5004,-4.5071,-4.5054,-4.5095,-4.51,-4.5103,-4.5097,-4.5143,-4.5164,-4.514,-4.5123,-4.5141,-4.5163,-4.5152,-4.5163,-4.5211,-4.519,-4.5003,-4.4975,-4.4948,-4.4929,-4.5214,-4.5214,-4.5389,-4.5391,-4.5392]},{"header":{"parameterUnit":"m.s-1","parameterCategory":1,"la1":30.2991,"la2":30.254,"lo1":-89.0895,"lo2":-89.0444,"dy":0.0017,"dx":0.0017,"nx":28,"ny":28,"refTime":"2023-11-12T03:00:00:Z","depth":0,"parameterNumber":3,"parameterNumberName":"V-component_of_WINDS"},"data":[0,0,0,0,0,0,0,0,0,0,0,0,0,0,0,0,0,0,0,0,0,0,0,0,0,0,0,0,0,0,0,0,0,0,0,0,0,0,0,0,0,0,0,0,0,0,0,0,0,0,0,0,0,0,0,0,0,0,-4.3879,-4.3879,0,-4.3911,-4.3911,-4.3912,-4.3849,-4.3847,-4.3844,-4.3843,-4.3873,-4.3875,-4.3878,0,0,0,0,0,0,0,0,0,0,0,0,0,-4.3759,-4.3761,-4.3879,-4.3879,-4.3879,-4.3911,-4.3911,-4.3912,-4.3849,-4.3846,-4.3844,-4.3842,-4.3872,-4.3875,-4.3878,0,0,0,0,0,0,0,0,0,0,0,0,0,-4.3803,-4.3762,-4.3879,-4.3852,-4.385,-4.3911,-4.3911,-4.3912,-4.3849,-4.3846,-4.3843,-4.384,-4.3871,-4.3875,-4.3879,-4.3966,0,0,-4.3891,-4.3893,0,0,0,0,0,0,0,0,-4.3801,-4.3807,-4.3855,-4.3854,-4.3852,-4.3873,-4.388,-4.393,-4.385,-4.385,-4.3842,-4.3839,-4.3875,-4.3878,-4.3891,-4.3967,-4.3969,-4.3892,-4.3894,-4.3896,-4.3897,0,0,0,0,0,0,0,-4.3798,-4.3806,-4.3891,-4.3856,-4.3854,-4.3837,-4.384,-4.3889,-4.3879,-4.3849,-4.3845,-4.385,-4.3873,-4.3887,-4.3891,-4.3969,-4.3891,-4.3895,-4.3898,-4.3899,-4.4117,-4.412,0,0,0,0,0,0,-4.3798,-4.3804,-4.389,-4.3892,-4.3818,-4.3842,-4.3845,-4.3869,-4.3878,-4.3877,-4.3852,-4.3847,-4.3882,-4.3887,-4.3892,-4.3994,-4.3896,-4.39,-4.3902,-4.4114,-4.4118,-4.4122,0,0,0,0,0,0,-4.3796,-4.3807,-4.3889,-4.3847,-4.3856,-4.3847,-4.3875,-4.3871,-4.3885,-4.3881,-4.3878,-4.3869,-4.388,-4.3887,-4.3948,-4.3994,-4.3901,-4.3905,-4.411,-4.4115,-4.412,-4.42,0,0,0,0,0,0,-4.3793,-4.3806,-4.384,-4.3848,-4.3858,-4.3946,-4.3878,-4.3874,-4.3893,-4.3886,-4.3896,-4.3894,-4.3878,-4.3942,-4.3952,-4.3998,-4.3908,-4.4106,-4.4112,-4.4118,-4.4193,-4.4207,-4.4219,0,0,0,0,0,-4.3789,-4.3861,-4.3842,-4.3853,-4.3901,-4.3948,-4.3954,-4.3935,-4.3897,-4.393,-4.3927,-4.3894,-4.3988,-4.3949,-4.396,-4.4008,-4.4103,-4.411,-4.4118,-4.4187,-4.4204,-4.4219,0,0,0,0,0,0,-4.3858,-4.3862,-4.3841,-4.3918,-4.3934,-4.3938,-4.3979,-4.3953,-4.3979,-4.3971,-4.3945,-4.3948,-4.4014,-4.4017,-4.3974,-4.4092,-4.4039,-4.4049,-4.4088,-4.4104,-4.4117,-4.4114,-4.3912,0,0,0,0,0,-4.3882,-4.3922,-4.3922,-4.399,-4.3999,-4.3988,-4.4008,-4.3992,-4.4006,-4.4012,-4.4013,-4.4028,-4.406,-4.4082,-4.4112,-4.4193,-4.4194,-4.4231,-4.4244,-4.4255,-4.4264,-4.4306,-4.4322,-4.4146,-4.4146,-4.4146,0,0,-4.3933,-4.394,-4.3966,-4.4004,-4.4014,-4.4054,-4.3994,-4.4039,-4.4068,-4.4018,-4.4077,-4.4078,-4.4093,-4.4164,-4.4196,-4.4169,-4.4313,-4.4265,-4.4273,-4.4276,-4.4315,-4.4332,-4.4347,-4.4151,-4.415,-4.415,0,0,-4.4045,-4.4055,-4.4112,-4.4123,-4.414,-4.4132,-4.4146,-4.4154,-4.4153,-4.4212,-4.4175,-4.4209,-4.4266,-4.4277,-4.4291,-4.4407,-4.4377,-4.4417,-4.4485,-4.4526,-4.454,-4.4552,-4.4593,-4.4608,-4.4426,-4.4426,-4.4427,0,-4.4105,-4.4165,-4.4144,-4.4192,-4.4209,-4.4168,-4.4224,-4.4236,-4.4261,-4.4274,-4.4243,-4.4314,-4.432,-4.4394,-4.4422,-4.4435,-4.4448,-4.4416,-4.454,-4.4552,-4.4563,-4.4601,-4.4617,-4.4431,-4.4431,-4.443,-4.443,0,-4.4238,-4.428,-4.4324,-4.435,-4.4373,-4.4425,-4.4411,-4.4436,-4.4417,-4.4412,-4.4472,-4.4478,-4.4508,-4.4525,-4.4507,-4.4595,-4.4578,-4.4544,-4.449,-4.4585,-4.462,-4.4635,-4.4438,-4.4436,-4.4435,-4.4434,0,0,-4.4394,-4.4408,-4.4425,-4.4436,-4.4451,-4.4482,-4.4532,-4.4562,-4.4584,-4.4602,-4.4643,-4.4692,-4.4661,-4.4676,-4.4659,-4.4695,-4.4786,-4.4657,-4.4657,-4.468,-4.4882,-4.4907,-4.4925,-4.4767,-4.4769,-4.4771,-4.4881,0,-4.4505,-4.4592,-4.4574,-4.4659,-4.4697,-4.4657,-4.47,-4.4714,-4.471,-4.4741,-4.4736,-4.4772,-4.4728,-4.4737,-4.4772,-4.4768,-4.4826,-4.476,-4.4802,-4.4804,-4.48,-4.4943,-4.497,-4.5073,-4.4895,-4.4897,-4.4899,0,-4.4646,-4.4671,-4.4759,-4.4768,-4.4783,-4.4822,-4.4848,-4.4879,-4.4892,-4.4887,-4.4904,-4.488,-4.4928,-4.4874,-4.4939,-4.4894,-4.491,-4.4911,-4.4915,-4.4917,-4.4857,-4.4949,-4.5105,-4.5121,-4.4921,-4.4919,-4.4917,0,-4.475,-4.4805,-4.4865,-4.4876,-4.4888,-4.4916,-4.4922,-4.4932,-4.4952,-4.4974,-4.4986,-4.5013,-4.5028,-4.505,-4.5033,-4.4995,-4.5101,-4.5045,-4.5097,-4.5097,-4.512,-4.5119,-4.5281,-4.5132,-4.5132,-4.5132,-4.5131,0,-4.4875,-4.4931,-4.4912,-4.4949,-4.501,-4.4989,-4.5049,-4.505,-4.506,-4.5095,-4.5062,-4.5096,-4.5072,-4.5104,-4.5091,-4.5147,-4.5154,-4.515,-4.5146,-4.5153,-4.5153,-4.5162,-4.5154,-4.5136,-4.5135,-4.5134,-4.5133,0,-4.5002,-4.4992,-4.5054,-4.506,-4.5063,-4.5107,-4.5111,-4.5145,-4.5139,-4.5184,-4.5194,-4.5184,-4.5219,-4.5205,-4.5243,-4.5234,-4.5305,-4.5291,-4.53,-4.5297,-4.5349,-4.5344,-4.5521,-4.5543,-4.5382,-4.5384,-4.5385,0,-4.5082,-4.5124,-4.5134,-4.5156,-4.5164,-4.52,-4.522,-4.52,-4.5221,-4.524,-4.5271,-4.5304,-4.5329,-4.5386,-4.5382,-4.541,-4.5397,-4.5457,-4.5401,-4.5406,-4.5397,-4.5394,-4.5398,-4.5468,-4.547,-4.5472,-4.5473,0,-4.5225,-4.5218,-4.5248,-4.5276,-4.5301,-4.5322,-4.534,-4.536,-4.5341,-4.5366,-4.5402,-4.5422,-4.546,-4.5492,-4.5517,-4.5522,-4.5494,-4.5491,-4.5504,-4.5511,-4.5514,-4.5512,-4.533,-4.5487,-4.5485,-4.5484,-4.5484,-4.5483,-4.533,-4.5365,-4.5378,-4.5412,-4.5424,-4.5441,-4.5473,-4.5472,-4.5502,-4.5532,-4.5518,-4.556,-4.5571,-4.5602,-4.561,-4.5642,-4.5618,-4.5637,-4.5642,-4.5647,-4.5653,-4.551,-4.5646,-4.5646,-4.5645,-4.5645,-4.5645,0,-4.547,-4.5476,-4.5508,-4.5535,-4.5562,-4.5535,-4.5553,-4.5577,-4.5615,-4.5628,-4.5654,-4.5695,-4.5726,-4.5724,-4.5753,-4.5778,-4.5766,-4.5786,-4.5783,-4.5785,-4.5673,-4.5659,-4.5795,-4.5795,-4.5795,-4.5795,-4.5795,-4.5795,-4.5546,-4.5604,-4.5599,-4.5661,-4.5667,-4.5708,-4.5721,-4.5737,-4.5747,-4.5795,-4.5821,-4.582,-4.5827,-4.5856,-4.5883,-4.5881,-4.5893,-4.5918,-4.5912,-4.5808,-4.5793,-4.5778,-4.5764,-4.5921,-4.5921,-4.602,-4.6021,-4.6022]}]]